| time (UTC) | temp C | wind direction | speed KPH | gust KPH | rain 1hr cm | rain 24hr cm | rain mn cm | humidity % | barometer mb |
| 20260505055111 | 8 | 228 | 1.6 | 3.2 | 0.00 | 0.00 | 0.00 | 84 | 1015.9 |
| 20260505054321 | 9 | 228 | 0.0 | 3.2 | 0.00 | 0.00 | 0.00 | 83 | 1015.9 |
| 20260505052109 | 9 | 228 | 0.0 | 1.6 | 0.00 | 0.00 | 0.00 | 84 | 1015.9 |
| 20260505050609 | 9 | 228 | 1.6 | 6.4 | 0.00 | 0.00 | 0.00 | 84 | 1015.9 |
| 20260505040603 | 9 | 228 | 0.0 | 0.0 | 0.00 | 0.00 | 0.00 | 86 | 1016.0 |
| 20260505035801 | 9 | 228 | 0.0 | 3.2 | 0.00 | 0.00 | 0.00 | 86 | 1016.0 |
| 20260505033600 | 9 | 228 | 0.0 | 3.2 | 0.00 | 0.00 | 0.00 | 86 | 1016.1 |
| 20260505032058 | 9 | 228 | 0.0 | 1.6 | 0.00 | 0.00 | 0.00 | 85 | 1016.1 |
| 20260505030559 | 9 | 228 | 1.6 | 4.8 | 0.00 | 0.00 | 0.00 | 85 | 1016.1 |
| 20260505025054 | 10 | 228 | 1.6 | 3.2 | 0.00 | 0.00 | 0.00 | 86 | 1016.1 |
| 20260505023555 | 10 | 228 | 0.0 | 0.0 | 0.00 | 0.00 | 0.00 | 86 | 1016.1 |
| 20260505022055 | 10 | 228 | 0.0 | 3.2 | 0.00 | 0.00 | 0.00 | 86 | 1016.2 |
| 20260505020554 | 10 | 228 | 0.0 | 1.6 | 0.00 | 0.00 | 0.00 | 86 | 1016.3 |
| 20260505015055 | 10 | 228 | 0.0 | 3.2 | 0.00 | 0.00 | 0.00 | 86 | 1016.4 |
| 20260505013553 | 10 | 228 | 0.0 | 1.6 | 0.00 | 0.00 | 0.00 | 86 | 1016.5 |
| 20260505012051 | 10 | 228 | 0.0 | 4.8 | 0.00 | 0.00 | 0.00 | 86 | 1016.6 |
| 20260505010548 | 10 | 228 | 3.2 | 4.8 | 0.00 | 0.00 | 0.00 | 86 | 1016.6 |
| 20260505005045 | 10 | 228 | 3.2 | 4.8 | 0.00 | 0.00 | 0.00 | 86 | 1016.6 |
| 20260505004247 | 9 | 228 | 1.6 | 6.4 | 0.00 | 0.00 | 0.00 | 86 | 1016.6 |
| 20260505002040 | 9 | 228 | 0.0 | 1.6 | 0.00 | 0.00 | 0.00 | 86 | 1016.7 |
| 20260505000538 | 10 | 228 | 3.2 | 8.0 | 0.00 | 0.00 | 0.00 | 86 | 1016.7 |
| 20260504235036 | 10 | 228 | 4.8 | 8.0 | 0.00 | 0.00 | 0.00 | 85 | 1016.6 |
| 20260504233536 | 10 | 242 | 4.8 | 6.4 | 0.00 | 0.00 | 0.00 | 85 | 1016.7 |
| 20260504232036 | 10 | 243 | 6.4 | 8.0 | 0.00 | 0.00 | 0.00 | 84 | 1016.7 |
| 20260504230536 | 10 | 244 | 4.8 | 8.0 | 0.00 | 0.00 | 0.00 | 84 | 1016.8 |
| 20260504225037 | 10 | 244 | 4.8 | 8.0 | 0.00 | 0.00 | 0.00 | 84 | 1016.7 |
| 20260504224226 | 10 | 244 | 3.2 | 8.0 | 0.00 | 0.00 | 0.00 | 83 | 1016.9 |
| 20260504222032 | 10 | 244 | 6.4 | 12.9 | 0.00 | 0.00 | 0.00 | 82 | 1016.8 |
| 20260504220529 | 11 | 261 | 6.4 | 12.9 | 0.00 | 0.00 | 0.00 | 82 | 1016.8 |
| 20260504215029 | 11 | 285 | 6.4 | 14.5 | 0.00 | 0.00 | 0.00 | 81 | 1017.0 |
| 20260504214233 | 11 | 288 | 9.7 | 17.7 | 0.00 | 0.00 | 0.00 | 80 | 1017.0 |
| 20260504212028 | 11 | 287 | 9.7 | 19.3 | 0.00 | 0.00 | 0.00 | 80 | 1017.0 |
| 20260504210527 | 11 | 263 | 9.7 | 20.9 | 0.00 | 0.00 | 0.00 | 80 | 1016.9 |
| 20260504205027 | 11 | 253 | 9.7 | 22.5 | 0.00 | 0.00 | 0.00 | 80 | 1016.8 |
| 20260504203527 | 11 | 280 | 9.7 | 20.9 | 0.00 | 0.00 | 0.00 | 78 | 1016.6 |
| 20260504202026 | 11 | 248 | 11.3 | 22.5 | 0.00 | 0.00 | 0.00 | 77 | 1016.5 |
| 20260504200526 | 11 | 250 | 11.3 | 22.5 | 0.00 | 0.00 | 0.00 | 77 | 1016.4 |
| 20260504195026 | 11 | 242 | 11.3 | 19.3 | 0.00 | 0.00 | 0.00 | 77 | 1016.2 |
| 20260504193526 | 12 | 251 | 11.3 | 22.5 | 0.00 | 0.00 | 0.00 | 77 | 1016.1 |
| 20260504192026 | 12 | 244 | 14.5 | 24.1 | 0.00 | 0.00 | 0.00 | 74 | 1016.0 |
| 20260504190526 | 12 | 261 | 12.9 | 25.7 | 0.00 | 0.00 | 0.00 | 72 | 1015.9 |
| 20260504185027 | 13 | 274 | 17.7 | 30.6 | 0.00 | 0.00 | 0.00 | 69 | 1015.8 |
| 20260504183526 | 13 | 265 | 16.1 | 37.0 | 0.00 | 0.00 | 0.00 | 66 | 1015.7 |
| 20260504182731 | 14 | 254 | 12.9 | 27.4 | 0.00 | 0.00 | 0.00 | 65 | 1015.7 |
| 20260504180526 | 13 | 252 | 16.1 | 25.7 | 0.00 | 0.00 | 0.00 | 67 | 1015.6 |
| 20260504175029 | 13 | 266 | 12.9 | 24.1 | 0.00 | 0.00 | 0.00 | 67 | 1015.7 |
| 20260504174206 | 14 | 277 | 16.1 | 30.6 | 0.00 | 0.00 | 0.00 | 63 | 1015.7 |
| 20260504172022 | 15 | 244 | 14.5 | 29.0 | 0.00 | 0.00 | 0.00 | 63 | 1015.6 |
| 20260504170520 | 14 | 237 | 14.5 | 27.4 | 0.00 | 0.00 | 0.00 | 66 | 1015.5 |
| 20260504150513 | 15 | 298 | 17.7 | 29.0 | 0.00 | 0.00 | 0.00 | 64 | 1015.2 |
| 20260504140514 | 16 | 237 | 12.9 | 24.1 | 0.00 | 0.03 | 0.00 | 61 | 1015.6 |
| 20260504130511 | 16 | 333 | 12.9 | 24.1 | 0.00 | 0.30 | 0.00 | 57 | 1015.8 |
| 20260504110511 | 16 | 261 | 9.7 | 19.3 | 0.00 | 0.71 | 0.00 | 59 | 1015.7 |
| 20260504100506 | 13 | 277 | 6.4 | 17.7 | 0.00 | 0.71 | 0.00 | 72 | 1015.9 |
| 20260504100408 | 13 | 255 | 4.8 | 11.3 | 0.00 | 0.71 | 0.00 | 76 | 1015.8 |
| 20260504082000 | 12 | 267 | 4.8 | 12.9 | 0.00 | 0.71 | 0.00 | 85 | 1015.6 |
| 20260504081153 | 12 | 274 | 6.4 | 12.9 | 0.00 | 0.71 | 0.00 | 86 | 1015.5 |